Dewpoint
-8 -12 -9 -5 -8 -10 -8 -10 -10 -9 1 6 9 4 6 9 10 11 14 14 14 14 14 10 9 12 12 12 12 11 8 6 2 -6 -14 -18 -13 -10 -8 -3 1 5 5 4 3 -0 -2 -1 -0
-10 -10 -3 -7 -8 -8 -10 -11 -10 -4 3 10 11 10 9 8 12 13 14 13 14 14 14 13 8 9 11 11 8 6 6 -1 -9 -17 -17 -12 -9 -8 -5 0 2 3 3 1 -1 -1 -1 0 -0
-10 -11 -6 -8 -9 -9 -9 -10 -8 3 7 9 10 11 9 8 11 13 14 13 14 14 14 11 8 6 6 6 7 5 -3 -11 -17 -16 -11 -9 -8 -6 -2 0 1 1 -0 -1 0 1 1 -0 -1
-6 -10 -9 -9 -9 -10 -13 -12 -1 1 6 8 9 9 11 10 8 13 13 13 13 14 14 12 8 7 7 7 5 -3 -12 -17 -16 -12 -9 -9 -7 -2 -1 -0 -1 -1 -0 0 1 1 -0 -0 -0
-8 -11 -11 -9 -9 -13 -13 -6 1 4 7 7 8 10 12 13 10 12 13 14 14 14 14 12 9 9 8 5 -3 -11 -16 -14 -10 -9 -10 -8 -3 -1 -0 -1 -1 -1 -0 0 -0 1 1 2 1
-8 -9 -10 -9 -10 -13 -11 1 5 6 8 8 9 10 13 13 13 14 14 13 12 11 12 13 12 10 10 6 2 1 -6 -7 -8 -9 -7 -4 -1 -1 -2 -2 -1 -0 0 1 2 3 3 3 2
-7 -7 -8 -9 -11 -9 -6 5 6 7 7 7 8 8 13 12 13 13 14 13 13 11 12 13 12 11 9 6 5 4 4 -4 -7 -7 -3 -3 -2 -2 -2 -1 0 1 2 3 3 4 4 3 1
-9 -9 -8 -10 -10 -5 -2 5 7 7 6 8 9 8 11 13 13 13 13 13 13 13 13 12 11 9 7 6 4 3 3 -5 -7 -2 -2 -2 -2 -2 -1 -0 1 2 3 3 4 5 5 3 -1
-8 -9 -8 -8 -8 -4 1 2 8 8 7 9 10 10 12 12 13 13 12 12 12 9 9 11 10 8 7 8 7 3 -0 -6 -3 -2 -2 -1 -1 -0 2 3 1 2 3 4 5 5 5 4 -2
-8 -7 -9 -10 -10 -8 -6 2 4 7 7 8 11 12 12 12 12 12 12 12 11 11 9 8 8 8 8 8 5 2 0 -2 -2 -2 -1 2 -0 6 3 1 2 4 4 5 5 5 5 3 -1
-7 -8 -9 -8 -8 -8 -7 -1 1 4 4 6 10 11 11 11 11 11 10 10 10 10 10 10 9 9 8 5 3 1 -3 -1 -2 -2 -2 -2 5 0 1 2 4 4 5 5 5 6 6 4 -3
-6 -8 -7 -7 -7 -6 -5 -1 3 4 6 8 10 11 11 11 11 11 10 10 10 10 10 9 8 6 4 1 2 2 2 -2 -1 -1 -2 -1 3 2 5 6 4 5 5 6 6 6 6 3 -4
-5 -7 -6 -4 -0 -2 1 2 4 6 9 11 12 11 11 11 11 10 10 10 9 8 8 7 6 2 1 4 7 6 0 -2 4 -1 -1 -1 -1 -1 1 4 5 6 6 6 6 6 5 1 -4
-5 -5 -4 0 0 2 3 4 5 7 10 11 12 11 11 11 11 11 10 10 9 8 6 5 6 6 7 8 8 5 6 6 -2 -2 -2 -2 -1 0 4 6 6 6 6 6 6 6 5 -2 -4
-4 -3 -4 1 1 3 3 4 3 7 10 11 11 11 11 11 10 10 9 10 9 7 7 7 7 7 8 7 6 6 -1 -2 4 -1 -2 1 4 6 7 7 7 7 7 7 7 6 5 -2 -4
-4 -4 -4 1 2 3 3 1 2 8 9 9 11 10 11 11 10 9 10 9 8 7 8 8 7 8 8 8 5 7 3 -2 2 2 5 7 8 7 8 8 8 8 7 7 6 5 1 -2 -4
-5 -4 -5 1 2 2 3 0 4 8 8 7 8 9 10 10 10 9 9 9 7 7 7 7 6 6 8 4 -0 -1 -0 0 7 9 9 8 8 8 7 7 8 8 7 7 6 5 -1 -1 -2
-6 -3 -5 -5 -0 2 1 -1 2 8 8 7 6 7 9 9 9 10 9 9 7 7 8 8 7 8 5 5 -0 -2 2 4 8 8 9 9 9 7 7 7 8 8 7 6 6 3 -1 -1 -0
-3 -3 -4 -4 -4 1 -1 -2 -4 5 8 7 6 6 7 8 9 10 9 9 8 7 8 9 9 9 10 9 4 6 6 7 7 9 8 8 6 7 7 8 8 8 6 6 6 1 -1 1 -1
-1 -3 -4 -3 -3 -2 -3 -3 -4 0 7 7 6 6 6 7 8 9 10 9 9 8 8 9 10 10 8 8 6 5 3 7 8 8 6 7 8 7 8 9 8 7 5 7 5 -1 1 1 -0
-1 -1 -2 -2 -2 -3 -3 -4 -3 1 5 7 8 7 5 5 6 8 10 10 10 9 9 9 10 10 9 10 8 7 7 8 6 7 5 7 7 8 9 9 8 7 7 6 1 -0 0 2 1
-0 -3 -2 -2 -2 -1 -3 -1 -4 -3 1 4 5 7 6 5 6 7 9 9 10 10 10 9 10 10 10 9 9 8 6 6 7 7 6 7 7 8 9 7 7 7 6 4 0 0 1 0 -0
-2 -2 -1 -1 -1 0 -1 -1 -4 -3 -3 -0 3 4 6 6 5 6 8 9 9 10 10 10 10 10 10 10 10 9 7 6 8 9 7 8 8 9 8 7 7 7 6 2 -0 0 -0 -0 -0
-2 -0 0 1 1 2 -1 -1 -3 -5 -5 -4 -4 1 3 5 7 6 6 8 9 10 10 8 8 10 10 9 8 9 10 9 9 7 7 8 9 9 8 7 7 6 3 1 0 0 0 -0 2
-0 0 3 4 4 2 0 0 -3 -4 -4 -3 -2 -2 -0 3 6 7 6 7 8 10 11 9 8 10 9 9 8 8 9 9 7 6 7 8 9 9 8 7 6 5 2 1 0 0 -0 1 2
0 -0 2 3 3 1 0 -1 -4 -3 -4 -2 -0 0 0 0 5 6 7 7 8 9 10 8 6 8 10 8 7 8 8 7 6 5 7 8 9 10 8 8 6 4 3 1 0 -0 0 2 2
1 2 -0 3 5 5 -1 -2 -5 -5 -4 -1 -2 -1 0 -0 3 5 6 7 9 9 10 9 8 9 10 9 10 9 7 7 5 5 6 9 10 9 8 7 6 5 3 2 0 -0 2 2 -1
1 -1 2 2 4 3 -0 -1 -4 -5 -2 -5 -5 -4 -2 2 2 3 5 6 8 9 10 11 10 10 11 11 10 9 8 7 7 7 9 9 9 9 8 7 6 4 3 3 0 1 2 -1 -0
1 2 1 0 1 3 2 -1 -5 -5 -4 -1 -1 -2 -1 1 3 3 4 5 6 8 9 10 10 10 10 10 10 8 9 9 9 9 9 9 9 9 9 6 5 5 4 2 0 2 0 0 -0
-1 -0 1 2 2 3 3 0 -6 -4 -3 -4 -3 -2 0 2 3 4 4 5 6 8 8 9 9 9 9 10 10 8 9 9 9 9 9 8 9 9 6 6 6 5 3 1 2 1 1 -0 -3
Wind_Speed
3 3 3 4 7 6 14 9 5 8 5 2 3 6 4 11 9 4 4 10 16 28 29 34 34 34 35 35 34 32 30 26 23 22 23 24 23 23 24 25 25 25 25 24 23 22 20 19 17
3 4 3 5 8 10 10 1 9 5 7 1 2 1 3 3 3 4 4 9 17 27 32 32 36 36 36 36 34 31 28 25 25 26 26 25 25 25 27 27 27 25 24 23 21 20 20 18 16
3 5 9 5 7 11 8 3 4 7 4 5 4 3 5 5 3 4 9 9 21 30 33 34 38 37 36 35 33 31 29 29 29 28 26 26 27 29 29 28 28 26 23 21 21 19 18 16 15
2 4 5 9 11 6 10 4 5 9 4 5 7 6 3 6 4 5 9 14 19 29 35 37 39 38 36 34 32 31 31 31 30 29 28 29 30 30 29 28 26 24 22 21 20 17 16 14 14
3 5 8 9 8 7 6 5 9 7 3 1 5 8 4 5 9 6 5 9 17 27 36 39 41 38 35 34 33 33 33 32 30 29 31 32 32 31 29 27 25 22 21 20 18 16 14 12 12
7 5 8 8 3 3 5 4 4 1 1 1 4 8 3 4 3 6 10 13 15 24 12 25 29 32 30 28 26 27 32 31 32 32 33 33 32 31 28 26 23 22 20 18 16 14 12 11 12
11 6 8 8 7 5 2 1 3 2 4 5 3 3 2 6 9 7 7 10 13 20 29 37 42 41 32 31 28 22 26 31 32 33 34 32 31 29 26 24 22 20 19 16 14 11 10 11 12
6 5 7 5 4 4 4 2 4 2 4 3 2 4 4 11 11 9 8 8 14 16 18 30 27 33 23 24 25 18 22 30 31 32 31 30 28 25 23 21 19 18 16 14 11 9 10 11 12
5 6 6 3 4 2 3 4 3 3 5 5 1 4 3 14 14 12 15 20 22 23 29 34 35 33 31 23 24 30 27 29 29 28 26 26 24 22 20 17 16 14 13 11 10 9 10 9 10
8 6 2 4 6 8 4 8 4 9 5 5 8 6 11 19 14 10 18 20 23 30 32 31 32 26 27 21 37 33 30 31 29 27 27 24 23 18 18 17 14 13 11 9 7 8 7 8 7
5 9 4 9 12 13 15 8 6 7 4 4 4 16 23 20 18 19 20 21 25 26 27 29 29 28 31 41 38 37 34 28 29 29 27 25 21 19 18 17 15 12 9 8 6 5 4 5 6
8 11 11 10 10 10 10 4 3 5 5 8 2 15 19 15 15 18 20 23 24 27 30 31 31 36 38 45 39 34 28 35 28 31 29 25 20 19 17 15 14 13 11 6 3 1 2 5 7
11 8 6 12 12 9 4 5 1 1 3 6 12 14 13 13 11 13 17 21 23 25 30 28 30 37 35 34 29 32 31 32 28 30 26 23 20 19 18 17 15 13 9 6 4 1 3 5 7
4 12 11 5 1 2 6 4 3 4 7 10 12 11 10 10 10 12 16 20 24 24 29 37 35 31 27 21 23 25 23 23 28 26 25 22 19 17 17 16 14 10 10 8 4 2 3 3 6
11 13 4 3 4 3 4 7 5 4 9 10 11 8 7 8 9 10 16 20 22 28 30 29 24 21 18 18 20 19 23 25 22 23 22 20 18 16 16 16 14 13 11 6 5 5 5 5 4
10 6 11 7 8 4 6 3 4 8 11 11 12 10 9 12 13 16 16 20 24 27 25 26 22 20 16 15 17 17 21 25 21 22 22 20 18 19 18 17 17 13 13 10 8 6 5 3 1
10 10 6 6 7 4 9 4 7 9 11 12 13 15 13 14 14 15 16 18 24 25 26 22 22 20 17 18 19 20 22 23 18 18 20 22 21 20 20 18 16 16 15 11 11 10 6 3 2
8 8 8 4 8 8 9 10 6 11 12 13 14 15 16 17 18 17 18 20 23 24 22 22 22 20 21 20 21 19 23 23 21 22 20 22 21 20 18 20 17 18 17 15 13 12 8 5 5
4 6 5 3 3 6 9 10 6 11 13 16 18 17 18 18 18 18 20 21 24 26 25 25 24 21 18 19 21 20 21 22 22 22 25 23 21 22 21 20 18 19 19 18 15 13 9 7 8
8 9 6 3 4 5 6 11 2 9 15 16 17 18 18 18 18 19 21 22 24 27 28 26 24 23 23 20 21 21 23 22 21 24 26 24 25 24 22 19 20 21 19 19 18 14 10 8 9
8 9 3 3 2 8 10 11 6 5 11 13 18 18 20 21 22 22 24 26 25 27 27 27 25 23 23 21 19 19 18 19 23 22 27 27 27 24 20 21 22 23 22 19 19 16 13 7 7
10 7 6 6 7 7 3 3 5 7 9 14 18 21 21 22 23 24 25 27 28 27 26 27 26 25 25 25 21 22 21 20 19 21 28 28 27 24 24 23 26 25 23 19 21 18 14 12 9
6 4 6 8 8 5 7 6 6 5 8 12 18 23 23 23 25 27 27 27 26 26 26 26 26 26 25 25 26 24 23 18 18 22 27 27 27 26 26 27 27 27 27 25 24 23 19 18 12
4 7 4 4 3 7 3 6 4 5 4 2 9 20 23 25 25 26 26 25 27 27 27 29 28 27 26 27 29 30 24 22 23 25 26 27 28 25 26 30 29 28 28 29 27 28 25 23 15
10 9 6 5 5 4 4 5 8 2 3 6 8 8 13 23 26 25 26 30 29 29 29 30 30 30 29 31 30 31 30 29 24 27 29 31 31 30 30 32 30 30 31 29 32 27 25 20 20
15 11 4 5 4 4 4 5 3 2 6 8 7 8 9 14 23 28 28 28 29 30 30 32 33 31 29 31 31 31 30 25 22 20 31 33 33 32 32 30 31 30 32 33 30 28 22 22 18
7 8 1 2 1 2 4 4 11 2 4 3 3 2 2 5 14 22 27 26 26 26 29 30 30 28 27 30 28 31 32 26 21 27 33 31 28 31 27 28 31 33 29 33 29 25 22 19 14
6 10 5 4 4 5 4 4 4 2 4 3 3 5 6 2 4 10 17 25 25 24 22 22 24 24 23 24 27 31 32 28 33 33 30 27 28 31 29 30 29 30 35 32 29 25 22 15 13
6 6 2 1 3 3 3 4 0 2 1 1 1 3 3 3 1 4 8 12 17 19 19 18 19 19 19 20 21 26 26 26 27 29 27 24 27 32 27 24 25 28 34 29 24 21 14 15 15
6 9 11 5 5 3 3 6 8 8 6 6 6 5 5 3 1 1 3 6 8 10 11 12 13 14 15 15 17 19 18 19 22 21 18 21 30 30 26 25 19 32 32 27 26 12 14 15 14
Wind_Direction
287 270 218 231 243 233 258 250 292 252 226 348 317 234 276 2 344 311 323 199 178 178 170 175 175 173 174 174 171 168 164 162 160 156 149 145 143 139 134 132 130 129 123 119 118 113 108 103 95
239 208 226 254 256 245 244 143 242 348 319 271 116 160 188 199 18 311 329 187 194 184 178 172 177 172 171 170 169 166 165 164 160 153 151 146 142 138 134 131 129 130 126 122 119 114 109 102 91
213 198 255 255 259 264 307 106 328 317 327 220 161 121 169 181 236 236 266 207 196 181 174 179 177 176 173 171 169 168 168 163 156 153 151 144 141 139 135 132 129 127 129 126 121 115 105 97 86
195 215 228 250 257 279 271 342 314 297 219 198 176 168 200 226 228 245 276 215 204 191 179 181 178 178 175 171 170 169 164 160 158 155 150 145 142 137 134 132 128 130 131 125 118 111 103 92 83
208 242 256 247 266 277 276 307 303 295 291 213 217 144 180 206 205 240 229 190 201 193 184 175 178 174 171 171 168 166 161 158 156 153 150 145 142 138 137 135 134 131 128 124 119 112 101 89 82
225 273 247 249 330 289 281 305 260 285 213 152 211 139 146 238 202 206 208 204 164 207 103 166 164 165 160 151 150 153 154 155 153 150 148 144 142 138 139 136 134 131 129 127 118 105 91 84 74
266 259 289 292 300 270 49 180 248 201 197 202 203 221 160 205 173 195 201 192 137 163 172 164 162 156 147 138 136 145 148 152 150 151 149 143 141 141 140 139 136 135 133 126 113 96 94 83 67
262 267 266 258 295 299 87 246 239 233 254 198 214 224 191 196 178 187 179 155 155 171 182 165 167 163 124 124 125 137 155 157 156 150 146 143 143 141 141 140 140 138 132 125 112 108 88 66 53
223 253 267 277 264 315 131 242 230 219 204 179 204 258 177 180 161 147 140 138 142 126 135 146 148 159 161 161 165 159 164 159 151 150 148 146 144 145 137 147 141 141 141 134 124 100 72 49 43
235 266 307 311 289 283 279 247 205 225 214 187 149 164 180 171 182 191 150 158 163 164 152 153 157 157 157 159 157 155 156 157 151 159 161 154 151 142 151 146 148 148 142 133 116 85 59 51 49
207 270 351 288 281 296 290 267 246 246 255 355 205 155 164 163 159 163 151 146 156 162 173 167 162 160 158 149 155 155 160 155 172 168 170 168 161 161 157 156 161 155 157 152 113 81 36 25 22
251 258 280 289 302 293 291 284 247 275 2 322 169 159 167 168 167 167 162 155 158 160 163 160 159 156 159 153 158 156 162 165 171 179 182 175 167 166 161 164 167 170 163 159 149 193 6 14 6
245 267 299 305 295 271 245 233 252 152 2 89 134 155 156 167 161 160 166 164 157 156 155 155 158 152 151 155 155 161 172 177 181 182 182 181 182 179 179 176 176 176 171 184 208 289 2 359 351
317 286 294 289 289 183 231 194 230 121 126 115 131 149 162 176 164 157 176 180 171 160 153 151 151 155 158 163 168 173 174 184 185 185 187 190 191 190 190 188 190 192 201 211 219 284 316 324 324
282 281 217 218 170 169 234 214 226 138 139 131 147 158 167 167 158 151 154 150 154 158 149 153 157 161 171 175 172 174 184 186 187 191 194 194 196 198 204 202 207 211 217 227 244 255 272 297 317
260 258 252 139 172 154 239 87 116 169 171 155 162 169 188 179 162 155 151 151 154 157 168 167 173 174 171 179 182 182 194 192 193 196 198 201 206 211 215 219 219 218 221 229 232 246 248 237 170
217 260 241 151 205 178 228 314 121 174 189 175 176 174 181 178 175 175 169 164 162 164 168 176 179 179 187 197 196 198 203 200 197 200 208 214 220 225 228 228 227 219 220 222 235 231 223 219 207
208 226 219 226 168 219 211 264 152 185 195 199 187 179 183 187 186 183 175 178 175 175 180 185 187 193 199 208 210 210 211 208 206 210 216 225 233 230 232 230 222 219 221 221 230 228 235 207 224
247 228 234 105 110 227 243 280 282 195 204 203 197 191 190 190 188 186 184 185 187 192 193 194 198 205 206 209 209 207 209 211 214 215 224 231 240 236 230 226 218 221 217 223 237 231 236 223 263
236 220 209 150 142 248 248 275 317 197 211 212 209 204 199 193 192 195 196 195 196 200 203 203 206 208 212 214 214 218 218 218 218 224 229 237 243 241 230 221 225 223 219 230 229 223 211 229 270
232 264 195 308 202 241 273 252 204 190 214 212 219 218 212 205 203 205 204 205 205 206 210 211 212 211 212 210 211 213 213 221 221 228 234 240 246 246 229 229 230 230 231 229 225 226 237 226 243
237 223 250 240 267 262 283 236 164 192 213 218 217 213 215 211 212 212 209 210 210 210 211 212 215 215 217 216 214 216 216 223 230 235 243 246 248 234 228 230 232 232 230 219 229 237 230 223 222
253 171 243 268 277 258 195 255 134 181 229 225 221 218 217 213 210 211 210 212 212 213 214 215 214 216 218 218 218 226 229 229 229 232 240 247 249 239 231 229 232 232 231 232 232 236 235 240 246
141 179 215 233 236 234 178 261 205 216 261 299 228 225 225 220 218 216 213 211 213 213 215 223 221 221 220 227 231 231 226 220 226 245 251 256 255 246 243 238 234 233 230 235 236 239 242 239 258
205 196 217 200 198 241 130 232 280 330 290 291 287 265 239 227 222 219 211 210 211 212 212 219 221 221 223 228 232 235 233 235 249 259 258 259 257 251 250 240 234 232 233 236 234 240 241 254 268
203 216 229 239 203 168 188 239 129 56 294 294 289 279 268 234 220 219 215 213 213 212 213 219 225 224 222 230 235 235 240 237 249 249 262 259 258 257 249 244 236 232 234 235 242 236 249 256 272
172 215 344 141 50 259 250 239 245 153 268 260 315 276 240 223 217 218 220 219 218 217 217 223 227 227 223 234 233 236 241 235 233 242 257 262 256 261 247 240 234 237 236 238 235 236 251 258 270
272 142 178 217 216 233 172 260 300 54 114 93 53 31 31 44 209 213 218 221 223 223 222 221 228 229 226 229 238 242 250 243 233 248 262 264 265 251 249 245 241 236 239 239 237 244 250 256 270
175 198 228 291 279 262 267 273 142 193 139 233 274 315 345 7 252 200 202 209 215 217 220 222 231 228 225 227 234 253 252 254 254 255 265 261 268 257 254 241 234 250 241 235 231 243 254 277 273
264 227 205 234 189 228 278 262 223 265 260 250 261 270 271 289 295 220 191 186 188 195 201 210 218 220 220 223 228 250 253 256 257 261 256 247 249 244 231 223 260 247 232 227 240 251 275 275 252
Height
1524 1524 1525 1527 1522 1509 1503 1497 1497 1498 1498 1500 1502 1498 1502 1503 1501 1508 1511 1511 1512 1515 1517 1519 1523 1526 1530 1533 1537 1539 1541 1545 1547 1549 1553 1555 1558 1560 1562 1566 1567 1571 1571 1572 1573 1573 1574 1575 1577
1523 1524 1526 1521 1515 1505 1496 1492 1498 1498 1501 1505 1505 1505 1506 1506 1510 1511 1509 1508 1510 1514 1515 1520 1523 1527 1530 1533 1537 1541 1543 1545 1548 1550 1554 1555 1559 1561 1564 1567 1570 1572 1573 1575 1577 1577 1576 1578 1578
1523 1524 1523 1512 1505 1504 1495 1496 1498 1501 1505 1505 1506 1507 1509 1507 1508 1510 1510 1506 1509 1509 1514 1518 1523 1528 1531 1535 1538 1540 1543 1545 1548 1551 1555 1556 1561 1564 1567 1570 1571 1574 1576 1577 1578 1579 1579 1579 1579
1524 1525 1522 1512 1502 1500 1501 1496 1501 1501 1503 1506 1505 1504 1506 1503 1501 1503 1506 1505 1510 1512 1511 1514 1520 1526 1532 1537 1539 1541 1543 1546 1548 1551 1555 1558 1561 1566 1569 1572 1574 1575 1578 1579 1580 1581 1581 1581 1582
1523 1521 1510 1506 1502 1499 1499 1502 1503 1501 1502 1501 1502 1501 1505 1503 1500 1502 1505 1506 1508 1507 1501 1512 1516 1525 1533 1538 1541 1543 1544 1547 1551 1554 1556 1559 1563 1566 1571 1573 1575 1578 1580 1582 1582 1583 1583 1584 1583
1519 1518 1509 1502 1499 1498 1499 1503 1504 1503 1505 1504 1503 1502 1506 1505 1502 1504 1506 1505 1504 1503 1486 1509 1511 1524 1531 1537 1544 1549 1549 1551 1553 1556 1559 1561 1566 1569 1573 1575 1577 1579 1582 1584 1583 1585 1587 1587 1585
1517 1511 1504 1504 1501 1498 1499 1504 1504 1504 1505 1505 1505 1501 1507 1506 1505 1507 1507 1507 1505 1507 1510 1514 1515 1519 1531 1537 1545 1553 1555 1557 1558 1559 1562 1564 1568 1571 1574 1577 1579 1580 1583 1584 1585 1587 1588 1587 1586
1517 1512 1506 1501 1499 1498 1500 1504 1504 1503 1501 1506 1506 1500 1504 1505 1507 1508 1508 1508 1507 1511 1514 1517 1516 1525 1532 1540 1546 1555 1561 1560 1561 1564 1567 1568 1571 1574 1577 1579 1580 1583 1584 1585 1586 1589 1589 1587 1587
1518 1509 1502 1501 1500 1494 1501 1502 1502 1502 1504 1506 1506 1506 1506 1505 1506 1507 1510 1510 1511 1515 1516 1516 1519 1525 1528 1534 1539 1552 1558 1561 1564 1569 1573 1572 1574 1577 1579 1581 1582 1584 1586 1587 1587 1588 1589 1589 1588
1512 1505 1500 1499 1497 1497 1497 1501 1501 1501 1499 1502 1508 1505 1504 1506 1508 1508 1510 1513 1512 1513 1516 1519 1523 1526 1529 1533 1542 1553 1559 1563 1565 1570 1573 1573 1576 1579 1578 1582 1585 1585 1585 1586 1588 1588 1590 1590 1590
1509 1502 1500 1499 1498 1497 1495 1498 1499 1497 1492 1496 1500 1505 1507 1509 1510 1511 1512 1513 1514 1515 1518 1520 1525 1529 1534 1538 1546 1550 1557 1561 1567 1571 1573 1574 1576 1578 1579 1582 1583 1584 1586 1587 1587 1588 1590 1590 1590
1509 1502 1501 1500 1500 1498 1496 1497 1497 1497 1498 1499 1501 1503 1505 1508 1510 1510 1513 1514 1515 1518 1521 1525 1529 1532 1536 1542 1548 1554 1557 1562 1569 1571 1573 1575 1577 1579 1581 1584 1584 1585 1585 1588 1589 1588 1589 1589 1590
1506 1500 1500 1499 1498 1498 1498 1495 1494 1498 1500 1501 1502 1505 1507 1510 1512 1513 1514 1516 1519 1521 1525 1528 1533 1537 1543 1548 1553 1558 1561 1564 1568 1569 1573 1574 1577 1578 1580 1582 1584 1586 1584 1586 1589 1588 1587 1588 1589
1503 1500 1498 1498 1497 1498 1496 1495 1496 1498 1501 1502 1505 1508 1509 1510 1513 1514 1514 1516 1519 1524 1527 1530 1536 1543 1547 1552 1554 1557 1561 1565 1567 1570 1572 1574 1576 1578 1580 1581 1583 1583 1584 1585 1586 1586 1586 1587 1588
1503 1499 1492 1494 1495 1495 1495 1491 1490 1497 1500 1503 1507 1509 1511 1512 1514 1516 1514 1519 1524 1528 1532 1536 1542 1546 1549 1553 1555 1558 1561 1564 1567 1569 1571 1573 1575 1578 1579 1580 1581 1582 1583 1583 1583 1585 1586 1587 1586
1498 1496 1489 1489 1492 1496 1496 1485 1490 1496 1499 1503 1507 1510 1513 1514 1516 1519 1520 1522 1527 1531 1536 1539 1543 1545 1548 1553 1555 1559 1561 1564 1566 1569 1570 1572 1574 1576 1576 1578 1580 1578 1580 1581 1583 1584 1585 1586 1584
1493 1488 1488 1491 1490 1491 1492 1482 1490 1496 1498 1500 1505 1508 1512 1514 1516 1519 1522 1524 1528 1532 1536 1539 1542 1545 1550 1553 1555 1557 1559 1562 1565 1567 1570 1571 1572 1573 1574 1575 1576 1576 1578 1579 1581 1582 1584 1583 1584
1490 1490 1486 1484 1487 1489 1485 1482 1486 1495 1496 1497 1501 1504 1508 1512 1514 1517 1520 1525 1529 1531 1535 1540 1542 1546 1548 1550 1552 1554 1559 1562 1563 1564 1566 1567 1569 1570 1570 1572 1573 1575 1575 1577 1579 1578 1580 1581 1582
1488 1488 1487 1484 1487 1488 1485 1481 1478 1489 1495 1495 1498 1502 1506 1509 1512 1515 1518 1522 1526 1530 1532 1535 1538 1541 1545 1547 1549 1554 1555 1558 1558 1560 1563 1563 1565 1567 1567 1569 1569 1572 1573 1575 1573 1575 1577 1577 1577
1489 1485 1484 1486 1487 1489 1480 1479 1476 1483 1489 1492 1494 1499 1501 1506 1509 1512 1515 1518 1522 1526 1528 1531 1534 1538 1540 1542 1545 1549 1551 1554 1557 1558 1557 1559 1562 1563 1563 1564 1566 1567 1570 1569 1570 1572 1573 1574 1574
1490 1487 1487 1486 1484 1483 1481 1474 1477 1482 1486 1490 1493 1495 1498 1500 1504 1508 1511 1514 1517 1520 1524 1528 1531 1534 1536 1541 1544 1546 1548 1549 1550 1551 1552 1555 1557 1559 1559 1560 1562 1565 1565 1566 1567 1568 1569 1571 1570
1489 1483 1486 1486 1485 1485 1479 1486 1473 1473 1477 1482 1485 1488 1491 1494 1498 1502 1506 1509 1512 1516 1521 1524 1528 1531 1533 1535 1538 1539 1543 1544 1545 1547 1548 1551 1554 1554 1554 1555 1558 1559 1561 1561 1562 1564 1565 1567 1568
1484 1485 1487 1484 1483 1485 1482 1483 1465 1473 1473 1471 1476 1480 1484 1487 1491 1495 1499 1503 1507 1512 1515 1518 1522 1525 1528 1530 1533 1534 1536 1540 1543 1543 1546 1548 1547 1547 1549 1550 1552 1553 1555 1556 1557 1558 1559 1560 1562
1484 1486 1487 1485 1484 1492 1478 1481 1466 1464 1465 1465 1468 1472 1476 1480 1484 1487 1493 1499 1502 1506 1509 1511 1515 1518 1522 1523 1526 1528 1532 1536 1536 1538 1541 1541 1542 1542 1543 1545 1546 1549 1551 1551 1552 1552 1552 1554 1555
1483 1482 1490 1499 1496 1491 1482 1484 1467 1462 1463 1466 1467 1468 1470 1474 1478 1482 1487 1491 1496 1499 1502 1505 1509 1512 1515 1517 1520 1522 1526 1530 1531 1532 1533 1535 1536 1536 1537 1537 1540 1542 1545 1546 1546 1547 1549 1551 1548
1477 1475 1484 1499 1495 1486 1486 1481 1463 1463 1465 1466 1466 1467 1467 1468 1471 1475 1479 1484 1488 1492 1495 1498 1501 1505 1509 1510 1513 1517 1521 1524 1525 1525 1525 1528 1529 1531 1530 1532 1535 1537 1539 1540 1542 1541 1545 1546 1544
1477 1481 1474 1485 1498 1494 1476 1468 1459 1462 1462 1465 1464 1464 1464 1464 1466 1468 1473 1478 1483 1487 1489 1492 1496 1500 1504 1505 1508 1510 1513 1517 1518 1520 1519 1521 1524 1525 1524 1527 1530 1531 1534 1535 1538 1539 1539 1540 1539
1473 1471 1483 1479 1496 1495 1477 1476 1467 1463 1462 1463 1463 1462 1462 1463 1463 1466 1469 1473 1477 1482 1486 1488 1490 1494 1499 1501 1502 1504 1505 1509 1512 1512 1513 1516 1518 1518 1519 1521 1524 1526 1528 1529 1533 1533 1534 1535 1535
1475 1473 1475 1473 1478 1486 1489 1475 1458 1460 1461 1463 1463 1464 1464 1463 1463 1463 1465 1469 1473 1477 1480 1482 1485 1489 1493 1496 1497 1497 1500 1503 1506 1507 1508 1511 1511 1513 1515 1517 1518 1521 1523 1526 1529 1530 1530 1530 1531
1460 1463 1467 1477 1482 1482 1483 1475 1454 1457 1461 1462 1462 1463 1464 1464 1463 1463 1464 1466 1468 1471 1475 1478 1481 1484 1488 1490 1492 1493 1495 1497 1500 1501 1503 1504 1504 1506 1508 1509 1515 1515 1514 1520 1524 1525 1526 1525 1526